Content
SEND FEEDBACK

Daily
Averages
Monthly
Summary
United States of America

DEENWOOD, GEORGIA


Home > North America > United States > Georgia
Elevation: 151 feet     Latitude: 31 15N     Longitude: 082 24W

WEATHER
 
SELECT A DAY
Number of Records: 337,750;   Date Range: 7/11/95 - 8/15/14
 
SHARE

PRINT THIS DATA

[ ← Previous Day ]
WEATHER ALMANAC - FEBRUARY 13, 2013
[ Next Day → ]
[ °C ]   °F
Weather ElementAverageHighLow
Temperature70.2 °F82.4 °F (12:55 pm)51.8 °F (11:15 pm)
Dewpoint58.2 °F69.8 °F (8:15 am)44.6 °F (4:35 pm)
Humidity68.6 %94 % (12:55 am)37 % (1:35 pm)
Barometer28.57 in29.96 in (11:35 pm) (7:00 pm)
Wind Speed13.4 mph20.7 mph (2:55 pm)
Wind Gust28.8 mph (7:55 pm)
Weather ElementAverage
Visibility9.8 mi
Wind DirectionWSW (256.9 °)

Weather ElementTotal
Precipitation---
Cooling Degree Days2.1 (Base 65)
Growing Degree Days17.1 (Base 50)
Averaged from 71 records on February 13, 2013
WEATHER CONDITIONS BREAKOUT
WIND DIRECTION BREAKOUT
WEATHER BY HOUR - FEBRUARY 13, 2013
[ °C ]   °F
Local TimeTemperatureDewpointHumidityBarometerVisibilityWind DirectionWind SpeedGust SpeedPrecipitationEventsConditions
12:35 AM69.8 °F66.2 °F88 %29.80 in7.0 miSW (220°)17.3 mphOvercast
12:55 AM69.8 °F68.0 °F94 %29.79 in7.0 miSW (220°)9.2 mphOvercast
1:15 AM71.6 °F68.0 °F88 %29.79 in10.0 miSW (220°)10.4 mphOvercast
1:35 AM71.6 °F68.0 °F88 %29.78 in10.0 miSSW (210°)13.8 mph18.4 mphOvercast
1:55 AM71.6 °F68.0 °F88 %29.78 in10.0 miSW (220°)15.0 mph19.6 mphOvercast
2:15 AM71.6 °F68.0 °F88 %29.78 in10.0 miSW (220°)12.7 mph17.3 mphOvercast
2:35 AM71.6 °F68.0 °F88 %29.77 in10.0 miSW (220°)12.7 mphOvercast
2:55 AM71.6 °F68.0 °F88 %29.77 in10.0 miSW (220°)11.5 mphOvercast
3:15 AM71.6 °F68.0 °F88 %29.76 in10.0 miSW (220°)10.4 mphOvercast
3:35 AM71.6 °F68.0 °F88 %29.76 in10.0 miSW (220°)16.1 mph24.2 mphOvercast
3:55 AM71.6 °F68.0 °F88 %29.76 in10.0 miSW (230°)17.3 mph26.5 mphOvercast
4:15 AM71.6 °F68.0 °F88 %29.76 in10.0 miSW (230°)18.4 mph24.2 mphOvercast
4:35 AM71.6 °F68.0 °F88 %29.76 in5.0 miWSW (240°)13.8 mph21.9 mphOvercast
4:55 AM69.8 °F68.0 °F94 %29.73 in10.0 miSouth (180°)8.1 mphOvercast
5:15 AM69.8 °F68.0 °F94 %7.0 miWest (260°)9.2 mph20.7 mphOvercast
5:35 AM71.6 °F68.0 °F88 %10.0 miWSW (240°)10.4 mphOvercast
5:55 AM71.6 °F68.0 °F88 %10.0 miSW (230°)13.8 mph20.7 mphOvercast
6:15 AM71.6 °F68.0 °F88 %29.77 in10.0 miWSW (240°)13.8 mph21.9 mphOvercast
6:35 AM73.4 °F68.0 °F83 %29.78 in10.0 miWSW (240°)15.0 mph21.9 mphOvercast
6:55 AM73.4 °F68.0 °F83 %29.78 in10.0 miWSW (240°)12.7 mph19.6 mphOvercast
7:15 AM73.4 °F68.0 °F83 %29.79 in10.0 miWSW (240°)13.8 mphOvercast
7:35 AM73.4 °F68.0 °F83 %29.80 in10.0 miWSW (240°)10.4 mph18.4 mphOvercast
7:55 AM73.4 °F68.0 °F83 %29.81 in10.0 miWSW (240°)10.4 mphOvercast
8:15 AM73.4 °F69.8 °F88 %29.81 in10.0 miWSW (240°)9.2 mphOvercast
8:35 AM73.4 °F69.8 °F88 %29.82 in10.0 miWSW (240°)11.5 mphOvercast
8:55 AM73.4 °F69.8 °F88 %29.82 in10.0 miWSW (250°)10.4 mph16.1 mphOvercast
9:15 AM73.4 °F69.8 °F88 %29.82 in10.0 miWSW (240°)11.5 mphScattered Clouds
9:35 AM75.2 °F69.8 °F83 %29.82 in7.0 miWSW (250°)15.0 mph18.4 mphMostly Cloudy
9:55 AM75.2 °F68.0 °F78 %29.82 in10.0 miWest (260°)16.1 mph23.0 mphScattered Clouds
10:15 AM75.2 °F66.2 °F73 %29.82 in10.0 miWest (260°)15.0 mph20.7 mphScattered Clouds
10:35 AM75.2 °F66.2 °F73 %29.83 in10.0 miWest (260°)13.8 mph24.2 mphScattered Clouds
10:55 AM75.2 °F66.2 °F73 %29.84 in10.0 miWest (260°)18.4 mph23.0 mphScattered Clouds
11:15 AM78.8 °F64.4 °F61 %29.83 in10.0 miWest (260°)16.1 mph25.3 mphClear
11:35 AM78.8 °F64.4 °F61 %29.82 in10.0 miWest (270°)15.0 mph21.9 mphClear
11:55 AM80.6 °F62.6 °F54 %29.81 in10.0 miWest (260°)16.1 mph23.0 mphClear
12:15 PM80.6 °F60.8 °F51 %29.80 in10.0 miWest (270°)12.7 mph17.3 mphClear
12:35 PM80.6 °F57.2 °F45 %29.79 in10.0 miWest (270°)19.6 mph27.6 mphClear
12:55 PM82.4 °F59.0 °F45 %29.79 in10.0 miWest (270°)16.1 mph21.9 mphClear
1:15 PM80.6 °F57.2 °F45 %29.78 in10.0 miWSW (250°)11.5 mph20.7 mphClear
1:35 PM80.6 °F51.8 °F37 %29.77 in10.0 miWest (260°)18.4 mph25.3 mphClear
1:55 PM78.8 °F51.8 °F39 %29.76 in10.0 miWSW (250°)11.5 mph19.6 mphScattered Clouds
2:15 PM80.6 °F51.8 °F37 %29.76 in10.0 miWest (260°)17.3 mph21.9 mphScattered Clouds
2:35 PM77.0 °F51.8 °F41 %29.76 in10.0 miWest (280°)16.1 mph21.9 mphScattered Clouds
2:55 PM75.2 °F48.2 °F38 %29.79 in10.0 miWest (260°)20.7 mph25.3 mphMostly Cloudy
3:15 PM73.4 °F48.2 °F41 %29.81 in10.0 miWest (270°)17.3 mph23.0 mphOvercast
3:35 PM73.4 °F48.2 °F41 %29.81 in10.0 miWest (280°)10.4 mph18.4 mphOvercast
3:55 PM73.4 °F48.2 °F41 %29.82 in10.0 miWest (280°)16.1 mph21.9 mphOvercast
4:15 PM71.6 °F46.4 °F41 %29.84 in10.0 miWest (270°)12.7 mph19.6 mphOvercast
4:35 PM71.6 °F44.6 °F38 %29.85 in10.0 miWest (270°)15.0 mph21.9 mphOvercast
4:55 PM69.8 °F44.6 °F40 %29.85 in10.0 miWest (280°)17.3 mph21.9 mphOvercast
5:15 PM69.8 °F44.6 °F40 %29.86 in10.0 miWest (270°)11.5 mph20.7 mphOvercast
5:35 PM68.0 °F44.6 °F43 %29.86 in10.0 miWest (260°)10.4 mph18.4 mphOvercast
5:55 PM68.0 °F44.6 °F43 %29.86 in10.0 miWest (270°)10.4 mphOvercast
6:15 PM68.0 °F46.4 °F46 %29.86 in10.0 miWest (260°)16.1 mphOvercast
6:35 PM66.2 °F46.4 °F49 %29.87 in10.0 miWest (270°)12.7 mph24.2 mphOvercast
6:55 PM66.2 °F46.4 °F49 %29.87 in10.0 miWest (260°)10.4 mphOvercast
7:15 PM64.4 °F46.4 °F52 %29.87 in10.0 miWest (260°)13.8 mph19.6 mphOvercast
7:35 PM64.4 °F46.4 °F52 %29.88 in10.0 miWest (280°)13.8 mph25.3 mphOvercast
7:55 PM64.4 °F46.4 °F52 %29.89 in10.0 miWest (280°)19.6 mph28.8 mphOvercast
8:15 PM62.6 °F46.4 °F55 %29.89 in10.0 miWNW (290°)13.8 mphOvercast
8:35 PM62.6 °F48.2 °F59 %29.89 in10.0 miWNW (290°)10.4 mph16.1 mphOvercast
8:55 PM60.8 °F48.2 °F63 %29.90 in10.0 miWNW (290°)12.7 mphOvercast
9:15 PM60.8 °F48.2 °F63 %29.91 in10.0 miWNW (300°)16.1 mph26.5 mphOvercast
9:35 PM57.2 °F51.8 °F82 %29.93 in10.0 miWNW (300°)16.1 mph24.2 mphOvercast
9:55 PM55.4 °F51.8 °F88 %29.93 in10.0 miWNW (300°)11.5 mph20.7 mphOvercast
10:15 PM55.4 °F51.8 °F88 %29.94 in10.0 miWNW (290°)12.7 mph18.4 mphOvercast
10:35 PM53.6 °F48.2 °F82 %29.94 in10.0 miNW (310°)9.2 mphOvercast
10:55 PM53.6 °F46.4 °F77 %29.95 in10.0 miWNW (300°)9.2 mphOvercast
11:15 PM51.8 °F46.4 °F82 %29.94 in10.0 miWNW (300°)8.1 mphMostly Cloudy
11:35 PM51.8 °F46.4 °F82 %29.96 in10.0 miWNW (290°)8.1 mphOvercast
11:55 PM51.8 °F46.4 °F82 %29.96 in10.0 miWest (260°)4.6 mphMostly Cloudy
Hourly data recorded from KAYS, located miles away from Deenwood, Georgia







STORIES FROM OUR PARTNERS